Flag for Germany Weather past 2 weeks in Zerbst/Anhalt, Saxony-Anhalt, Germany

Now
71 °F

Sunny.


Feels Like: 76 °F
Forecast: 55 / 71 °F
Wind: 3 mph from East

Location: Magdeburg

Current Time: Sep 17, 2014 at 12:27:52 PM

Latest Report: Sep 17, 2014 at 12:00 PM


Visibility: 10 mi

Pressure: 30.01 "Hg

Humidity: 60%

Dew point: 57 °F

Location of Zerbst/AnhaltLocation

Historic Weather in Zerbst/Anhalt — Graph

°F

Zerbst/Anhalt temperature yesterday

Maximum temperature yesterday: 75 °F (at 3:00 PM)
Minimum temperature yesterday: 54 °F (at 6:00 AM)
Average temperature yesterday: 64 °F

Past Weeks' High & Low Weather Summary

 TemperatureHumidityPressure
High80 °F (Sep 5, 4:00 PM)98% (Sep 6, 8:00 AM)30.29 "Hg (Sep 6, 8:00 AM)
Low52 °F (Sep 9, 4:00 AM)50% (Sep 3, 3:00 PM)29.85 "Hg (Sep 6, 6:00 PM)
Average63 °F83%30.08 "Hg
* Reported Sep 2 10:00 AM — Sep 17 10:00 AM, Zerbst/Anhalt, Weather by CustomWeather, © 2014

Note: Actual official high and low records may vary slightly from our data, if they occured in-between our weather recording intervals... More about our weather records

Advertising

Zerbst/Anhalt weather history for previous 24 hours

 ConditionsComfort  
Time TempWeatherWind HumidityBarometerVisibility
10:00 AM
Sep 17
66 °FScattered clouds.3 mph76%30.03 "Hg9 mi
9:00 AM62 °FScattered clouds.1 mph82%30.04 "Hg7 mi
8:00 AM60 °FPartly sunny.1 mph89%30.03 "Hg7 mi
7:00 AM58 °FPartly sunny.1 mph92%30.03 "Hg6 mi
6:00 AM59 °FOvercast.1 mph90%30.03 "Hg6 mi
4:00 AM58 °FFog.2 mph94%30.04 "Hg4 mi
3:00 AM58 °FFog.1 mph93%30.04 "Hg4 mi
2:00 AM60 °FFog.1 mph90%30.05 "Hg4 mi
1:00 AM61 °FPassing clouds.1 mph88%30.05 "Hg5 mi
12:00 AM63 °FPassing clouds.2 mph82%30.05 "Hg6 mi
11:00 PM
Sep 16
65 °FPassing clouds.2 mph80%30.05 "Hg6 mi
10:00 PM65 °FFog.2 mph82%30.05 "Hg4 mi
9:00 PM67 °FPassing clouds.2 mph81%30.05 "Hg5 mi
8:00 PM68 °FPassing clouds.2 mph77%30.04 "Hg5 mi
7:00 PM71 °FPassing clouds.2 mph72%30.03 "Hg6 mi
6:00 PM72 °FScattered clouds.2 mph69%30.03 "Hg6 mi
5:00 PM74 °FScattered clouds.2 mph66%30.03 "Hg9 mi
4:00 PM75 °FScattered clouds.3 mph61%30.04 "Hg10 mi
3:00 PM75 °FPartly sunny.3 mph58%30.05 "Hg9 mi
2:00 PM74 °FScattered clouds.2 mph64%30.06 "Hg7 mi
1:00 PM73 °FScattered clouds.2 mph72%30.07 "Hg6 mi
12:00 PM69 °FScattered clouds.2 mph77%30.08 "Hg5 mi
Weather by CustomWeather, © 2014

See weather overviewHow to use our weather pages